York, PA

5:45 AM EST on December 06, 2019 (GMT -0500)
York

Weather History for KTHV - October, 2019

Change the Weather History Date:

Sunday, October 27, 2019

  Actual Average Record
Temperature  
Mean Temperature 62 °F -  
Max Temperature 77 °F 0 °F 71 °F (2010)
Min Temperature 48 °F - 30 °F (1999)
Degree Days  
Heating Degree Days 2    
Growing Degree Days 12 (Base 50)    
Moisture  
Dew Point 55 °F    
Average Humidity 82    
Maximum Humidity 94    
Minimum Humidity 43    
Precipitation  
Precipitation 1.34 in - - ()
Sea Level Pressure  
Sea Level Pressure 29.85 in    
Wind  
Wind Speed 7 mph ()    
Max Wind Speed 20 mph    
Max Gust Speed 32 mph    
Visibility 5.9 miles    
Events Fog , Rain    
Averages and records for this station are not official NWS values.
T = Trace of Precipitation, MM = Missing Value Source: Averaged Metar Reports

Daily Weather History Graph

Daily Weather History Graph

Search for Another Location

Airport or City:

Astronomy

Oct. 27, 2019 Rise Set
Actual Time 7:30 AM EDT 6:11 PM EDT
Civil Twilight 7:02 AM EDT 6:39 PM EDT
Nautical Twilight 6:31 AM EDT 7:11 PM EDT
Astronomical Twilight 5:59 AM EDT 7:42 PM EDT
Moon 6:36 AM EDT (10/27) 6:19 PM EDT (10/27)
Length of Visible Light 11h 36m
Length of Day
10h 41m
Waning Crescent, 0% of the Moon is Illuminated
Oct 27
Waning Crescent
Oct 27
New
Nov 4
First Quarter
Nov 12
Full
Nov 19
Last Quarter

Hourly Weather History & Observations

Time (EDT) Temp. Dew Point Humidity Pressure Visibility Wind Dir Wind Speed Gust Speed Precip Events Conditions
12:45 AM 55.9 °F 50.0 °F 80% 30.08 in 10.0 mi ESE 10.4 mph - 0.01 in Rain Light Rain
12:53 AM 55.9 °F 51.1 °F 84% 30.09 in 10.0 mi ESE 8.1 mph - 0.01 in Rain Light Rain
1:53 AM 55.9 °F 52.0 °F 87% 30.07 in 10.0 mi ESE 5.8 mph - 0.01 in   Overcast
2:53 AM 55.9 °F 52.0 °F 87% 30.04 in 10.0 mi ESE 6.9 mph - N/A   Overcast
3:41 AM 55.9 °F 53.1 °F 90% 29.99 in 5.0 mi ESE 8.1 mph - 0.07 in Rain Rain
3:53 AM 55.9 °F 53.1 °F 90% 29.99 in 8.0 mi ESE 8.1 mph 17.3 mph 0.07 in Rain Light Rain
4:53 AM 57.9 °F 54.0 °F 87% 29.94 in 10.0 mi SE 11.5 mph - 0.06 in Rain Light Rain
5:10 AM 57.9 °F 54.0 °F 87% 29.92 in 4.0 mi ESE 10.4 mph 16.1 mph 0.04 in Rain Rain
5:53 AM 57.9 °F 55.0 °F 90% 29.88 in 3.0 mi SE 12.7 mph 20.7 mph 0.15 in Rain Rain
6:53 AM 60.1 °F 55.9 °F 86% 29.84 in 6.0 mi ESE 10.4 mph 21.9 mph 0.02 in Rain Light Rain
7:31 AM 60.1 °F 57.0 °F 90% 29.82 in 3.0 mi ESE 10.4 mph - 0.09 in Rain Light Rain
7:53 AM 60.1 °F 57.9 °F 93% 29.80 in 4.0 mi ESE 6.9 mph - 0.13 in Rain Light Rain
8:34 AM 62.1 °F 57.9 °F 86% 29.77 in 2.0 mi ESE 9.2 mph - 0.10 in Rain Heavy Rain
8:42 AM 62.1 °F 59.0 °F 90% 29.76 in 1.2 mi ESE 6.9 mph - 0.18 in Rain Heavy Rain
8:53 AM 62.1 °F 59.0 °F 90% 29.74 in 1.5 mi ESE 11.5 mph 20.7 mph 0.25 in Rain Rain
8:57 AM 63.0 °F 60.1 °F 90% 29.74 in 2.5 mi SE 13.8 mph 19.6 mph 0.01 in Rain Rain
9:00 AM 63.0 °F 60.1 °F 90% 29.74 in 3.0 mi SE 11.5 mph 21.9 mph 0.02 in Rain Rain
9:24 AM 64.0 °F 60.1 °F 87% 29.79 in 0.8 mi WNW 19.6 mph 32.2 mph 0.20 in Rain Light Rain
9:34 AM 62.1 °F 59.0 °F 90% 29.81 in 1.0 mi West 9.2 mph 26.5 mph 0.28 in Rain Rain
9:45 AM 62.1 °F 59.0 °F 90% 29.79 in 1.0 mi WNW 5.8 mph - 0.36 in Rain Light Rain
9:48 AM 62.6 °F 59.0 °F 88% 29.79 in 1.8 mi WNW 5.8 mph - 0.36 in Rain Light Rain
9:50 AM 60.8 °F 59.0 °F 94% 29.79 in 3.0 mi West 5.8 mph - 0.36 in Rain Light Rain
9:53 AM 61.0 °F 59.0 °F 93% 29.78 in 4.0 mi West 3.5 mph - 0.36 in Rain Light Rain
10:03 AM 61.0 °F 59.0 °F 93% 29.78 in 2.0 mi Calm Calm - 0.03 in Rain Rain
10:05 AM 61.0 °F 57.9 °F 90% 29.78 in 1.0 mi Calm Calm - 0.08 in Rain Rain
10:12 AM 60.1 °F 57.9 °F 93% 29.79 in 0.2 mi Calm Calm - 0.22 in Fog , Rain Heavy Rain
10:20 AM 61.0 °F 57.9 °F 90% 29.78 in 1.0 mi SE 4.6 mph - 0.26 in Rain Heavy Rain
10:24 AM 61.0 °F 57.9 °F 90% 29.77 in 2.0 mi SE 6.9 mph - 0.27 in Rain Rain
10:27 AM 61.0 °F 57.9 °F 90% 29.77 in 3.0 mi East 3.5 mph - 0.27 in Rain Light Rain
10:53 AM 62.1 °F 60.1 °F 93% 29.79 in 10.0 mi Calm Calm - 0.28 in   Overcast
11:29 AM 66.0 °F 62.1 °F 87% 29.78 in 10.0 mi Calm Calm - N/A   Mostly Cloudy
11:53 AM 66.9 °F 63.0 °F 87% 29.78 in 10.0 mi West 5.8 mph - N/A   Scattered Clouds
12:53 PM 72.0 °F 63.0 °F 73% 29.75 in 10.0 mi West 10.4 mph - N/A   Partly Cloudy
1:53 PM 75.0 °F 57.9 °F 55% 29.74 in 10.0 mi WSW 10.4 mph 20.7 mph N/A   Scattered Clouds
3:53 PM 73.9 °F 51.1 °F 45% 29.77 in 10.0 mi West 11.5 mph 26.5 mph N/A   Scattered Clouds
4:53 PM 73.9 °F 50.0 °F 43% 29.79 in 10.0 mi West 12.7 mph 19.6 mph N/A   Clear
5:53 PM 69.1 °F 48.9 °F 49% 29.83 in 10.0 mi WNW 10.4 mph - N/A   Clear
6:53 PM 66.0 °F 48.0 °F 52% 29.88 in 10.0 mi NW 8.1 mph - N/A   Clear
7:53 PM 64.0 °F 46.0 °F 52% 29.92 in 10.0 mi NW 15.0 mph - N/A   Clear
8:53 PM 61.0 °F 46.0 °F 58% 29.95 in 10.0 mi NW 9.2 mph - N/A   Clear
9:53 PM 54.0 °F 45.0 °F 72% 29.98 in 10.0 mi Calm Calm - N/A   Clear
10:53 PM 50.0 °F 44.1 °F 80% 30.00 in 10.0 mi WNW 3.5 mph - N/A   Clear
11:53 PM 48.0 °F 44.1 °F 86% 30.01 in 10.0 mi Calm Calm - N/A   Clear